Location: Songkhla
(7.2000°N, 100.6000°E)
Time: 14:58:01
(UTC+07:00)

ISS - All Passes

Search period start: 14 April 2024 00:00
Search period end: 24 April 2024 00:00
Orbit: 413 x 419 km, 51.6° (Epoch: 13 April)

Date Brightness Start Highest point End Pass type
(mag) Time Alt. Az. Time Alt. Az. Time Alt. Az.
14 Apr - 05:51:49 10° WSW 05:54:47 30° NW 05:57:45 10° N daylight
14 Apr - 15:48:09 10° N 15:50:48 22° NE 15:53:28 10° ESE daylight
14 Apr - 17:26:02 10° WSW 17:27:19 12° SW 17:28:35 10° SSW daylight
15 Apr - 05:02:58 10° SW 05:06:17 78° NW 05:09:36 10° NNE visible
15 Apr - 15:01:50 10° NE 15:02:13 10° NE 15:02:37 10° ENE daylight
15 Apr - 16:35:59 10° WNW 16:38:49 26° SW 16:41:40 10° S daylight
16 Apr - 04:14:38 10° SSW 04:17:46 38° SE 04:20:53 10° NE visible
16 Apr - 15:46:59 10° NW 15:50:17 67° SW 15:53:36 10° SSE daylight
17 Apr - 03:27:00 10° SSE 03:29:14 17° SE 03:31:27 10° E visible
17 Apr - 05:03:42 10° W 05:05:46 16° NW 05:07:50 10° NNW visible
17 Apr - 14:58:31 10° NNW 15:01:44 45° NE 15:04:56 10° SE daylight
18 Apr - 04:14:04 10° WSW 04:17:08 34° NW 04:20:12 10° NNE visible
18 Apr - 14:10:37 10° N 14:13:06 19° NE 14:15:34 10° E daylight
18 Apr - 15:47:54 10° W 15:49:36 13° SW 15:51:19 10° SSW daylight
19 Apr - 03:25:11 10° SW 03:28:31 88° SE 03:31:50 10° NE night (unlit)
19 Apr - 14:58:01 10° WNW 15:00:59 30° SW 15:03:57 10° S daylight
20 Apr - 02:36:50 10° S 02:39:53 33° SE 02:42:54 10° ENE night (unlit)
20 Apr - 14:09:01 10° NW 14:12:21 80° SW 14:15:40 10° SSE daylight
21 Apr - 01:49:17 10° SSE 01:51:13 15° SE 01:53:08 10° E night (unlit)
21 Apr - 03:25:23 10° W 03:27:44 18° NW 03:30:04 10° N night (unlit)
21 Apr - 13:20:32 10° NNW 13:23:38 38° NE 13:26:45 10° ESE daylight
22 Apr - 02:35:49 10° SW 02:38:59 41° NW 02:42:08 10° NNE night (unlit)
22 Apr - 12:32:39 10° N 12:34:53 17° NE 12:37:07 10° E daylight
22 Apr - 14:09:20 10° W 14:11:24 15° SW 14:13:28 10° SSW daylight
23 Apr - 01:46:55 10° SSW 01:50:14 74° SE 01:53:33 10° NE night (unlit)
23 Apr - 13:19:35 10° WNW 13:22:40 35° SW 13:25:45 10° SSE daylight
